Location: Carnoy
(49.9849°N, 2.7558°E)
Time: 09:41:59
(UTC+00:00)

ADEOS Rocket - Pass Details

Date: 24 January 2020
Orbit: 859 x 1306 km, 98.7° (Epoch: 19 February)

Event Time Altitude Azimuth Distance (km) Brightness Sun altitude
Rises 17:42:53 0° 22° (NNE) 3,812 5.7 -11.8°
Reaches altitude 10° 17:45:46 10° 35° (NE) 2,924 5.0 -12.2°
Maximum altitude 17:51:22 28° 92° (E) 2,021 4.1 -13.1°
Drops below altitude 10° 17:57:23 10° 148° (SSE) 3,164 5.5 -14.0°
Sets 18:00:36 0° 160° (SSE) 4,180 6.2 -14.5°
